DW9443 Weather Reports


Display with metric or nautical units.
time (UTC)temp
F
wind
direction
speed
MPH
gust
MPH
rain 1hr
in
rain 24hr
in
rain mn
in
humidity
%
barometer
mb
20180221224717 35 171 1.0 0.0 0.00 0.00 0.00 63 1027.6
20180221223214 37 171 3.0 0.0 0.00 0.00 0.00 48 1027.7
20180221221711 37 166 4.0 0.0 0.00 0.00 0.00 42 1027.8
20180221220208 36 180 2.0 0.0 0.00 0.00 0.00 40 1028.0
20180221214707 35 194 3.0 0.0 0.00 0.00 0.00 50 1028.4
20180221213205 35 144 3.0 0.0 0.00 0.00 0.00 41 1028.4
20180221211704 33 134 4.0 0.0 0.00 0.00 0.00 46 1028.4
20180221210204 31 136 3.0 0.0 0.00 0.00 0.00 54 1028.5
20180221204701 31 137 2.0 0.0 0.00 0.00 0.00 50 1029.1
20180221203159 31 135 2.0 0.0 0.00 0.00 0.00 50 1028.8
20180221201658 30 135 4.0 0.0 0.00 0.00 0.00 52 1028.7
20180221200201 33 132 2.0 0.0 0.00 0.00 0.00 42 1028.6
20180221194701 35 130 2.0 0.0 0.00 0.00 0.00 37 1028.6
20180221193155 32 130 2.0 0.0 0.00 0.00 0.00 44 1028.8
20180221191655 0 0.0 0.0 0.00 0.00 0.00 1029.2
20180221190149 0 0.0 0.0 0.00 0.00 0.00 1028.9
20180221184644 0 0.0 0.0 0.00 0.00 0.00 1029.0
20180221183138 0 0.0 0.0 0.00 0.00 0.00 1029.5
20180221181636 0 0.0 0.0 0.00 0.00 0.00 1029.1
20180221180132 0 0.0 0.0 0.00 0.00 0.00 1028.9
20180221174629 0 0.0 0.0 0.00 0.00 0.00 1028.7
20180221173122 0 0.0 0.0 0.00 0.00 0.00 1029.0
20180221171617 0 0.0 0.0 0.00 0.00 0.00 1029.1
20180221170113 0 0.0 0.0 0.00 0.00 0.00 1029.4
20180221164611 0 0.0 0.0 0.00 0.00 0.00 1029.3
20180221163105 0 0.0 0.0 0.00 0.00 0.00 1029.0
20180221161600 0 0.0 0.0 0.00 0.00 0.00 1029.4
20180221160100 0 0.0 0.0 0.00 0.00 0.00 1029.3
20180221154552 0 0.0 0.0 0.00 0.00 0.00 1029.6
20180221153047 0 0.0 0.0 0.00 0.00 0.00 1029.8
20180221151542 0 0.0 0.0 0.00 0.00 0.00 1029.9
20180221150039 0 0.0 0.0 0.00 0.00 0.00 1029.8
20180221144535 21 95 0.0 0.0 0.00 0.00 0.00 91 1029.7
20180221143033 21 281 0.0 0.0 0.00 0.00 0.00 91 1029.4
20180221141530 21 281 0.0 0.0 0.00 0.00 0.00 89 1029.5
20180221140031 22 104 0.0 0.0 0.00 0.00 0.00 90 1029.7
20180221134529 22 269 0.0 0.0 0.00 0.00 0.00 87 1029.7
20180221133026 23 342 0.0 0.0 0.00 0.00 0.00 86 1029.7
20180221131524 22 14 0.0 0.0 0.00 0.00 0.00 86 1029.9
20180221130024 23 162 4.0 0.0 0.00 0.00 0.00 47 1030.4
20180221124523 33 115 2.0 0.0 0.00 0.00 0.00 43 1030.5
20180221123018 33 110 3.0 0.0 0.00 0.00 0.00 43 1030.4
20180221121515 33 104 3.0 0.0 0.00 0.00 0.00 44 1030.9
20180221120016 31 99 4.0 0.0 0.00 0.00 0.00 50 1031.2
20180221114508 28 96 5.0 0.0 0.00 0.00 0.00 61 1031.2
20180221113007 25 63 0.0 0.0 0.00 0.00 0.00 76 1031.8
20180221111502 27 63 0.0 0.0 0.00 0.00 0.00 67 1031.8
20180221110004 26 63 1.0 0.0 0.00 0.00 0.00 65 1031.7
20180221104505 27 63 1.0 0.0 0.00 0.00 0.00 64 1031.9
20180221102957 27 63 2.0 0.0 0.00 0.00 0.00 62 1031.7
20180221101454 28 63 0.0 0.0 0.00 0.00 0.00 60 1031.6
20180221095950 0 111 0.0 0.0 0.00 0.00 0.00 1031.2
20180221094445 0 219 1.0 0.0 0.00 0.00 0.00 1031.1
20180221092940 0 119 1.0 0.0 0.00 0.00 0.00 1031.0
20180221091438 0 107 1.0 0.0 0.00 0.00 0.00 1031.2
20180221085932 0 110 0.0 0.0 0.00 0.00 0.00 1031.2
20180221084430 0 331 0.0 0.0 0.00 0.00 0.00 1031.4
20180221082930 0 105 1.0 0.0 0.00 0.00 0.00 1031.6
20180221081429 0 117 0.0 0.0 0.00 0.00 0.00 1031.9
20180221075929 0 117 1.0 0.0 0.00 0.00 0.00 1032.4
20180221074430 0 117 1.0 0.0 0.00 0.00 0.00 1032.1
20180221072928 0 111 1.0 0.0 0.00 0.00 0.00 1032.2
20180221071425 0 112 3.0 0.0 0.00 0.00 0.00 56 1032.3
20180221065924 29 75 1.0 0.0 0.00 0.00 0.00 61 1032.2
20180221064426 28 75 1.0 0.0 0.00 0.00 0.00 63 1032.4
20180221062924 29 75 0.0 0.0 0.00 0.00 0.00 62 1032.2
20180221061421 30 75 0.0 0.0 0.00 0.00 0.00 60 1032.2
20180221055921 30 75 0.0 0.0 0.00 0.00 0.00 59 1031.9
20180221054422 30 75 0.0 0.0 0.00 0.00 0.00 59 1032.2
20180221052920 30 75 2.0 0.0 0.00 0.00 0.00 61 1032.2
20180221051421 29 75 1.0 0.0 0.00 0.00 0.00 61 1032.7
20180221045919 29 75 3.0 0.0 0.00 0.00 0.00 61 1032.7
20180221044419 29 74 3.0 0.0 0.00 0.00 0.00 60 1032.8
20180221042918 29 67 3.0 0.0 0.00 0.00 0.00 62 1033.3
20180221041416 29 61 1.0 0.0 0.00 0.00 0.00 67 1033.5
20180221035915 29 61 1.0 0.0 0.00 0.00 0.00 69 1033.6
20180221034415 28 60 4.0 0.0 0.00 0.00 0.00 71 1033.6
20180221032917 27 25 3.0 0.0 0.00 0.00 0.00 76 1034.0
20180221031414 27 13 2.0 0.0 0.00 0.00 0.00 79 1034.1
20180221025914 26 13 0.0 0.0 0.00 0.00 0.00 82 1034.2
20180221024412 27 13 0.0 0.0 0.00 0.00 0.00 81 1033.9
20180221022912 28 13 0.0 0.0 0.00 0.00 0.00 80 1033.6
20180221021412 28 13 0.0 0.0 0.00 0.00 0.00 81 1033.7
20180221015913 29 13 0.0 0.0 0.00 0.00 0.00 78 1033.6
20180221014409 28 13 0.0 0.0 0.00 0.00 0.00 80 1033.9
20180221012908 28 13 0.0 0.0 0.00 0.00 0.00 80 1033.7
20180221011408 28 13 2.0 0.0 0.00 0.00 0.00 78 1033.8
20180221005908 29 13 2.0 0.0 0.00 0.00 0.00 76 1033.8
20180221004406 29 18 3.0 0.0 0.00 0.00 0.00 76 1033.5
20180221002908 28 22 3.0 0.0 0.00 0.00 0.00 79 1033.5
20180221001404 27 17 4.0 0.0 0.00 0.00 0.00 82 1033.3
20180220235903 27 5 3.0 0.0 0.00 0.00 0.00 81 1033.3
20180220234402 28 11 2.0 0.0 0.00 0.00 0.00 78 1032.9
20180220232901 29 14 2.0 0.0 0.00 0.00 0.00 78 1033.1
20180220231401 28 15 2.0 0.0 0.00 0.00 0.00 78 1033.1
20180220225859 29 16 1.0 0.0 0.00 0.00 0.00 77 1033.0